Погода в Балтиморе

США     39°17′24″N   76°36′45″W
темп.,
°C
ветер,
м/с
пор.,
м/с
влажн.,
%
обл.,
%
осадки,
мм/ч
давл.,
гПа
погр.,
м
17 сентября, пт
пт1723:00+22всв4689100 0.0 1022365
02:00+22св4691100 0.0 1021319
05:00+22св4792100 0.0 1021402
08:00+22св479095 0.0 1022410
11:00+25св567458 0.0 1022709
14:00+27всв446489 0.0 1021995
17:00+25св457446 2.2 1019634
20:00+24св358267 2.8 1019318
18 сентября, сб
сб1823:00+23всв238619 0.2 1019175
02:00+22с12870 0.2 1018124
05:00+21с23890 0.0 1019125
08:00+21с12850 0.0 1019175
11:00+26с12650 0.0 1019699
14:00+28в135823 0.0 10171146
17:00+28ссв145839 0.4 1016808
20:00+26зюз11680 0.8 101726
19 сентября, вс
вс1923:00+25зюз12703 0.0 101839
02:00+23с23740 0.0 1019115
05:00+22ссв36750 0.0 1020237
08:00+21ссв47744 0.0 1021311
11:00+25ссв44509 0.0 1023815
14:00+27св344217 0.0 10211045
17:00+27св33455 0.0 1020889
20:00+24св355812 0.0 1022215
20 сентября, пн
пн2023:00+22всв346230 0.0 1023168
02:00+20в2369100 0.0 1024193
05:00+20вюв2371100 0.0 1024205
08:00+20в346995 0.0 1025269
11:00+23вюв345790 0.0 1026647
14:00+25юв3446100 0.0 1025922
17:00+25вюв3553100 0.0 1024586
20:00+23юв6866100 0.0 1025687
21 сентября, вт
вт2123:00+21юв5872100 0.0 1026607
02:00+21юв5875100 0.0 1025583
05:00+20юв467996 0.0 1025461
08:00+20юв4678100 0.0 1025469
11:00+23юв5569100 0.0 1025854
14:00+25ююв4559100 0.0 10241085
17:00+25ююв4658100 0.0 1022784
20:00+23ю4767100 0.0 1021481